Voltar ao catálogo

COSMOS 1823 DEB

AtivoLEO
NORAD 18747·DEBRIS·🇷🇺 Russia

Lançado Feb 20, 1987 de Plesetsk Cosmodrome

Loading…

Próximas Passagens (próximas 24 horas)

TLE

AtualizadoSource: Space-Track

Época: Sep 14, 2026, 10:13 UTC

1 18747U 87020AA  26257.42626810 -.00000031  00000-0 -10498-3 0  9996
2 18747  73.6277  40.6232 0041308 174.3079 215.7718 12.38770670751673

Acompanhe COSMOS 1823 DEB em tempo real com AllMySat

Download on the App Store